• Join FlightAware (Why Join?)
  • Login
  • US Flag 
12:17AM EST


 

Airport Tracker/Info


-or-


 

Live Flight TrackerFlight Track Log ✈ AAL1884 ✈ 12-Jun-2013 ✈ KSJC - KDFW

Flight Track Log - Related Links

Times and Time Zones

All times are in EDT time to prevent confusion due to time zone crossing. See the AAL1884 flight status page for this flight to view local times or setup timezone preferences in your user account.

Time Position Orientation Groundspeed Altitude Reporting Facility
EDT Latitude Longitude Course Direction KTS MPH feet Rate Location/Type
12:29PM 37.3833 -121.9500 133° Southeast 175 201 1,300  Level Northern Cal TRACON
12:30PM 37.4333 -121.9667 345° North 192 221 3,500 1,667 Climbing Northern Cal TRACON
12:31PM 37.3315 -121.4871 130° Southeast  Level Estimated
12:31PM 37.4000 -121.9000 122° Southeast 238 274 4,800  Level Northern Cal TRACON
12:32PM 37.3207 -121.3398 138° Southeast  Level Estimated
12:33PM 37.3098 -121.1926 141° Southeast  Level Estimated
12:33PM 37.3236 -121.7772 128° Southeast 284 327 9,100  Level Oakland Center
12:34PM 37.2986 -121.0454 133° Southeast  Level Estimated
12:34PM 37.2611 -121.7106 140° Southeast 296 341 10,900  Level Oakland Center
12:35PM 37.1928 -121.6325 138° Southeast 329 379 13,200 2,244 Climbing Oakland Center
12:36PM 37.1208 -121.5528 139° Southeast 345 397 15,500 2,311 Climbing Oakland Center
12:37PM 37.0353 -121.4589 139° Southeast 360 414 17,900 1,707 Climbing Oakland Center
12:38PM 36.9553 -121.3725 139° Southeast 380 437 19,000 1,122 Climbing Oakland Center
12:39PM 36.8692 -121.2775 139° Southeast 413 475 20,200 1,415 Climbing Oakland Center
12:40PM 36.7717 -121.1733 139° Southeast 436 502 21,900 1,659 Climbing Oakland Center
12:41PM 36.6778 -121.0683 138° Southeast 453 521 23,600 1,869 Climbing Oakland Center
12:42PM 36.5950 -120.9503 131° Southeast 451 519 25,700 1,610 Climbing Oakland Center
12:43PM 36.5167 -120.8278 128° Southeast 452 520 26,900 634 Climbing Oakland Center
12:44PM 36.4378 -120.7092 130° Southeast 447 514 27,000 49 Climbing Oakland Center
12:45PM 36.3583 -120.5881 129° Southeast 450 518 27,000 -49 Level Oakland Center
12:46PM 36.2792 -120.4669 129° Southeast 451 519 26,900  Descending Oakland Center
12:47PM 36.2006 -120.3486 129° Southeast 445 512 27,000 49 Climbing Oakland Center
12:48PM 36.1058 -120.2081 130° Southeast 443 510 27,000 -49 Level Oakland Center
12:49PM 36.0261 -120.0894 130° Southeast 445 512 26,900 -49 Descending Oakland Center
12:50PM 35.9472 -119.9731 130° Southeast 443 510 26,900 49 Level Oakland Center
12:51PM 35.8672 -119.8550 130° Southeast 445 512 27,000  Climbing Oakland Center
12:52PM 35.7894 -119.7386 129° Southeast 443 510 26,900  Descending Los Angeles Center
12:53PM 35.7114 -119.6222 130° Southeast 440 506 27,000 672 Climbing Los Angeles Center
12:54PM 35.6325 -119.5067 130° Southeast 439 505 28,300 1,248 Climbing Los Angeles Center
12:55PM 35.5544 -119.3925 130° Southeast 436 502 29,600 1,258 Climbing Los Angeles Center
12:56PM 35.4625 -119.2561 130° Southeast 433 498 30,900 871 Climbing Los Angeles Center
12:57PM 35.3844 -119.1439 130° Southeast 432 497 31,400 726 Climbing Los Angeles Center
12:58PM 35.3069 -119.0283 129° Southeast 435 501 32,400 774 Climbing Los Angeles Center
12:59PM 35.2272 -118.9147 131° Southeast 437 503 33,000 290 Climbing Los Angeles Center
01:01PM 35.1489 -118.8017 130° Southeast 437 503 33,000 -48 Level Los Angeles Center
01:02PM 35.0694 -118.6883 131° Southeast 440 506 32,900 -48 Descending Los Angeles Center
01:03PM 34.9736 -118.5508 130° Southeast 444 511 32,900 48 Level Los Angeles Center
01:04PM 34.8958 -118.4417 131° Southeast 444 511 33,000 48 Climbing Los Angeles Center
01:05PM 34.8164 -118.3286 131° Southeast 444 511 33,000  Level Los Angeles Center
01:06PM 34.7358 -118.2164 131° Southeast 443 510 33,000  Level Los Angeles Center
01:07PM 34.6422 -118.0797 130° Southeast 443 510 33,000  Level Los Angeles Center
01:08PM 34.6422 -117.9111 90° East 516 594 33,000  Level Los Angeles Center
01:09PM 34.6631 -117.7417 81° East 515 593 33,000  Level Los Angeles Center
01:10PM 34.6833 -117.5700 82° East 518 596 33,000  Level Los Angeles Center
01:11PM 34.7014 -117.3956 83° East 524 603 33,000  Level Los Angeles Center
01:12PM 34.7231 -117.1897 83° East 520 598 33,000  Level Los Angeles Center
01:13PM 34.7414 -117.0175 83° East 518 596 33,000  Level Los Angeles Center
01:14PM 34.7589 -116.8472 83° East 513 590 33,000  Level Los Angeles Center
01:15PM 34.7767 -116.6769 83° East 511 588 33,000  Level Los Angeles Center
01:16PM 34.7928 -116.5042 83° East 514 592 33,000  Level Los Angeles Center
01:17PM 34.7986 -116.2967 88° East 515 593 33,000  Level Los Angeles Center
01:18PM 34.7944 -116.1278 92° East 507 583 33,000  Level Los Angeles Center
01:19PM 34.7906 -115.9597 92° East 503 579 33,000  Level Los Angeles Center
01:20PM 34.7889 -115.7919 91° East 499 574 33,000  Level Los Angeles Center
01:21PM 34.7858 -115.6222 91° East 502 578 33,000  Level Los Angeles Center
01:22PM 34.7831 -115.4203 91° East 497 572 33,000  Level Los Angeles Center
01:23PM 34.7806 -115.2542 91° East 494 568 33,000  Level Los Angeles Center
01:24PM 34.7775 -115.0847 91° East 498 573 33,000  Level Los Angeles Center
01:25PM 34.7739 -114.9186 91° East 496 571 33,000  Level Los Angeles Center
01:26PM 34.7717 -114.7497 91° East 499 574 33,000  Level Los Angeles Center
01:27PM 34.7672 -114.5836 92° East 495 570 33,000  Level Los Angeles Center
01:28PM 34.7631 -114.3831 91° East 496 571 33,000  Level Los Angeles Center
01:30PM 34.7592 -114.2169 92° East 494 568 33,000  Level Los Angeles Center
01:31PM 34.7547 -114.0492 92° East 496 571 33,000  Level Los Angeles Center
01:32PM 34.7511 -113.8742 91° East 499 574 33,000  Level Los Angeles Center
01:32PM 34.7478 -113.7761 92° East 493 567 33,000  Level Albuquerque Center
01:33PM 34.7436 -113.6106 92° East 493 567 33,000  Level Albuquerque Center
01:34PM 34.7364 -113.4153 93° East 489 563 33,000  Level Albuquerque Center
01:35PM 34.7314 -113.2517 92° East 491 565 33,000  Level Albuquerque Center
01:36PM 34.7256 -113.0875 92° East 492 566 33,000  Level Albuquerque Center
01:37PM 34.7200 -112.9242 92° East 491 565 33,000  Level Albuquerque Center
01:38PM 34.7131 -112.7275 92° East 492 566 33,000  Level Albuquerque Center
01:39PM 34.7067 -112.5633 93° East 492 566 33,000  Level Albuquerque Center
01:41PM 34.7094 -112.4017 89° East 486 559 33,000  Level Albuquerque Center
01:42PM 34.7247 -112.2400 83° East 484 557 33,000  Level Albuquerque Center
01:43PM 34.7400 -112.0772 83° East 489 563 33,000  Level Albuquerque Center
01:44PM 34.7558 -111.8842 84° East 485 558 33,000  Level Albuquerque Center
01:45PM 34.7694 -111.7239 84° East 482 555 33,000  Level Albuquerque Center
01:46PM 34.7836 -111.5639 84° East 481 554 33,000  Level Albuquerque Center
01:47PM 34.7972 -111.4044 84° East 478 550 33,000  Level Albuquerque Center
01:48PM 34.8097 -111.2433 85° East 482 555 33,000  Level Albuquerque Center
01:49PM 34.8256 -111.0556 84° East 480 552 33,000  Level Albuquerque Center
01:50PM 34.8397 -110.8753 84° East 480 552 33,000  Level Albuquerque Center
01:51PM 34.8522 -110.7206 84° East 479 551 33,000  Level Albuquerque Center
01:52PM 34.8644 -110.5658 84° East 481 554 33,000  Level Albuquerque Center
01:53PM 34.8786 -110.3858 84° East 480 552 33,000  Level Albuquerque Center
01:54PM 34.8903 -110.2331 85° East 476 548 33,000  Level Albuquerque Center
01:55PM 34.9039 -110.0522 85° East 480 552 33,000  Level Albuquerque Center
01:56PM 34.9147 -109.8969 85° East 479 551 33,000  Level Albuquerque Center
01:57PM 34.9269 -109.7158 85° East 482 555 33,000  Level Albuquerque Center
01:58PM 34.9381 -109.5603 85° East 483 556 33,000  Level Albuquerque Center
01:59PM 34.9514 -109.3800 85° East 481 554 33,000  Level Albuquerque Center
02:00PM 34.9617 -109.2256 85° East 480 552 33,000  Level Albuquerque Center
02:01PM 34.9731 -109.0442 86° East 481 554 33,000  Level Albuquerque Center
02:02PM 34.9775 -108.8894 88° East 480 552 33,000  Level Albuquerque Center
02:03PM 34.9853 -108.7108 87° East 476 548 33,000  Level Albuquerque Center
02:04PM 34.9908 -108.5578 87° East 474 545 33,000  Level Albuquerque Center
02:05PM 34.9978 -108.3786 87° East 476 548 33,000  Level Albuquerque Center
02:06PM 35.0036 -108.2264 87° East 473 544 33,000  Level Albuquerque Center
02:07PM 35.0097 -108.0450 88° East 479 551 33,000  Level Albuquerque Center
02:08PM 35.0158 -107.8894 87° East 480 552 33,000  Level Albuquerque Center
02:09PM 35.0214 -107.7178 88° East 481 554 33,000  Level Albuquerque Center
02:10PM 35.0258 -107.5544 88° East 482 555 33,000  Level Albuquerque Center
02:12PM 35.0211 -107.3936 92° East 481 554 33,000  Level Albuquerque Center
02:13PM 34.9850 -107.2392 106° East 479 551 33,000  Level Albuquerque Center
02:14PM 34.9497 -107.0775 105° East 473 544 33,000  Level Albuquerque Center
02:15PM 34.9094 -106.9067 106° East 470 541 33,000  Level Albuquerque Center
02:16PM 34.8747 -106.7597 106° East 471 542 33,000  Level Albuquerque Center
02:17PM 34.8547 -106.5833 98° East 476 548 33,000  Level Albuquerque Center
02:18PM 34.8411 -106.4392 97° East 483 556 33,000  Level Albuquerque Center
02:19PM 34.8275 -106.2814 96° East 474 545 33,000  Level Albuquerque Center
02:20PM 34.8125 -106.1025 96° East 467 537 33,000  Level Albuquerque Center
02:21PM 34.7994 -105.9436 96° East 468 539 33,000  Level Albuquerque Center
02:22PM 34.7831 -105.7850 97° East 469 540 33,000  Level Albuquerque Center
02:23PM 34.7714 -105.6286 95° East 464 534 33,000  Level Albuquerque Center
02:24PM 34.7547 -105.4456 96° East 463 533 33,000  Level Albuquerque Center
02:25PM 34.7403 -105.2869 96° East 466 536 33,000  Level Albuquerque Center
02:26PM 34.7275 -105.1292 96° East 467 537 33,000  Level Albuquerque Center
02:27PM 34.7114 -104.9717 97° East 467 537 33,000  Level Albuquerque Center
02:28PM 34.6964 -104.8139 97° East 468 539 33,000  Level Albuquerque Center
02:29PM 34.6825 -104.6583 96° East 463 533 33,000  Level Albuquerque Center
02:30PM 34.6681 -104.5047 96° East 458 527 33,000  Level Albuquerque Center
02:31PM 34.6533 -104.3481 96° East 462 532 33,000  Level Albuquerque Center
02:32PM 34.6344 -104.1664 97° East 464 534 33,000  Level Albuquerque Center
02:33PM 34.6203 -104.0117 96° East 462 532 33,000  Level Albuquerque Center
02:34PM 34.6047 -103.8567 97° East 462 532 33,000  Level Albuquerque Center
02:35PM 34.5886 -103.7028 97° East 459 528 33,000  Level Albuquerque Center
02:36PM 34.5722 -103.5486 97° East 459 528 33,000  Level Albuquerque Center
02:37PM 34.5547 -103.3917 98° East 464 534 33,000  Level Albuquerque Center
02:38PM 34.5403 -103.2372 96° East 462 532 33,000  Level Albuquerque Center
02:39PM 34.5225 -103.0850 98° East 457 526 33,000  Level Albuquerque Center
02:40PM 34.5028 -102.9047 98° East 459 528 33,000  Level Albuquerque Center
02:41PM 34.4856 -102.7497 98° East 454 522 33,000  Level Albuquerque Center
02:42PM 34.4711 -102.6017 97° East 448 516 33,000  Level Albuquerque Center
02:43PM 34.4572 -102.4589 97° East 437 503 33,000  Level Albuquerque Center
02:44PM 34.4417 -102.3119 97° East 438 504 33,000  Level Albuquerque Center
02:45PM 34.4269 -102.1661 97° East 439 505 33,000  Level Albuquerque Center
02:46PM 34.4108 -102.0214 98° East 438 504 33,000  Level Albuquerque Center
02:48PM 34.3944 -101.8761 98° East 438 504 33,000  Level Albuquerque Center
02:49PM 34.3764 -101.7022 97° East 438 504 33,000  Level Albuquerque Center
02:50PM 34.3594 -101.5583 98° East 436 502 33,000  Level Albuquerque Center
02:51PM 34.3439 -101.4133 97° East 437 503 33,000  Level Albuquerque Center
02:52PM 34.3267 -101.2689 98° East 436 502 33,000  Level Albuquerque Center
02:53PM 34.3100 -101.1239 98° East 437 503 33,000  Level Albuquerque Center
02:54PM 34.2881 -100.9525 99° East 431 496 33,000  Level Fort Worth Center
02:55PM 34.2733 -100.8064 97° East 431 496 33,000  Level Fort Worth Center
02:56PM 34.2564 -100.6575 98° East 436 502 33,000  Level Fort Worth Center
02:57PM 34.2372 -100.5108 99° East 441 507 33,000  Level Fort Worth Center
02:58PM 34.2072 -100.3667 104° East 441 507 33,000  Level Fort Worth Center
02:59PM 34.1708 -100.2225 107° East 441 507 33,000  Level Fort Worth Center
03:00PM 34.1344 -100.0758 107° East 441 507 33,000  Level Fort Worth Center
03:01PM 34.0978 -99.9317 107° East 447 514 33,000  Level Fort Worth Center
03:02PM 34.0611 -99.7878 107° East 447 514 33,000  Level Fort Worth Center
03:03PM 34.0239 -99.6464 108° East 447 514 33,000  Level Fort Worth Center
03:04PM 33.9869 -99.4975 107° East 447 514 33,000  Level Fort Worth Center
03:05PM 33.9475 -99.3564 109° East 447 514 33,000  Level Fort Worth Center
03:06PM 33.9119 -99.2131 107° East 447 514 33,000 -450 Level Fort Worth Center
03:07PM 33.8744 -99.0672 107° East 447 514 32,100 -1,900 Descending Fort Worth Center
03:08PM 33.8386 -98.9289 107° East 440 506 29,200 -2,400 Descending Fort Worth Center
03:09PM 33.8044 -98.8033 108° East 440 506 27,300 -2,100 Descending Fort Worth Center
03:10PM 33.7683 -98.6703 108° East 434 499 25,000 -1,650 Descending Fort Worth Center
03:11PM 33.7322 -98.5375 108° East 420 483 24,000 -1,600 Descending Fort Worth Center
03:12PM 33.6936 -98.3969 108° East 414 476 21,800 -2,200 Descending Fort Worth Center
03:13PM 33.6653 -98.2869 107° East 398 458 19,600 -1,850 Descending Fort Worth Center
03:14PM 33.6325 -98.1669 108° East 385 443 18,100 -1,550 Descending Fort Worth Center
03:15PM 33.5978 -98.0369 108° East 373 429 16,500 -1,550 Descending Fort Worth Center
03:16PM 33.5650 -97.9219 109° East 368 423 15,000 -1,500 Descending Fort Worth Center
03:17PM 33.5278 -97.8122 112° Southeast 368 423 13,500 -1,400 Descending Fort Worth Center
03:18PM 33.4653 -97.7372 135° Southeast 357 411 12,200 -1,300 Descending Fort Worth Center
03:19PM 33.3947 -97.6497 134° Southeast 336 387 10,900 -1,200 Descending Fort Worth Center
03:20PM 33.3364 -97.5800 135° Southeast 306 352 9,800 -1,200 Descending Fort Worth Center
03:21PM 33.2883 -97.5203 134° Southeast 285 328 8,500 -1,550 Descending Fort Worth Center
03:22PM 33.2278 -97.4483 135° Southeast 280 322 6,700 -1,550 Descending Fort Worth Center
03:23PM 33.1819 -97.3886 133° Southeast 275 316 5,400 -1,425 Descending Fort Worth Center
03:23PM 33.1667 -97.3667 130° Southeast 270 311 4,800 -1,350 Descending Dallas / Fort Worth TRACON
03:24PM 33.1167 -97.3000 132° Southeast 252 290 3,600 -960 Descending Dallas / Fort Worth TRACON
03:25PM 33.0797 -97.2647 141° Southeast 248 285 3,200 -360 Descending Fort Worth Center
03:26PM 33.0358 -97.2178 138° Southeast 223 257 3,000 -200 Descending Fort Worth Center